Hourly Weather Kizha

Today, 27 July, Tuesday

Time Temperature Precipitation Wind Pressure Humidity
00:00 +14°C° 0 mm 1 mps 678 mmHg 80%
01:00 +14°C° 0 mm 1 mps 678 mmHg 83%
02:00 +13°C° 0 mm 1 mps 678 mmHg 85%
03:00 +13°C° 0 mm 1 mps 678 mmHg 87%
04:00 +12°C° 0 mm 1 mps 677 mmHg 90%
05:00 +14°C° 0 mm 1 mps 678 mmHg 82%
06:00 +16°C° 0 mm 1 mps 678 mmHg 74%
07:00 +18°C° 0 mm 2 mps 679 mmHg 66%
08:00 +20°C° 0 mm 2 mps 679 mmHg 59%
09:00 +23°C° 0 mm 2 mps 679 mmHg 51%
10:00 +24°C° 0 mm 3 mps 678 mmHg 44%
11:00 +24°C° 0 mm 3 mps 678 mmHg 45%
12:00 +24°C° 0 mm 2 mps 678 mmHg 45%
13:00 +24°C° 0 mm 2 mps 677 mmHg 46%
14:00 +24°C° 0 mm 2 mps 677 mmHg 47%
15:00 +24°C° 0 mm 2 mps 677 mmHg 49%
16:00 +24°C° 0 mm 1 mps 677 mmHg 50%
17:00 +22°C° 0 mm 1 mps 677 mmHg 55%
18:00 +21°C° 0 mm 1 mps 676 mmHg 60%
19:00 +19°C° 0 mm 2 mps 676 mmHg 66%
20:00 +18°C° 0 mm 1 mps 676 mmHg 72%
21:00 +16°C° 0 mm 1 mps 676 mmHg 79%
22:00 +14°C° 0 mm 1 mps 676 mmHg 85%
23:00 +14°C° 0 mm 1 mps 676 mmHg 87%

Tomorrow, 28 July, Wednesday

Time Temperature Precipitation Wind Pressure Humidity
00:00 +14°C° 0 mm 1 mps 676 mmHg 88%
01:00 +13°C° 0 mm 1 mps 676 mmHg 90%
02:00 +13°C° 0 mm 1 mps 676 mmHg 91%
03:00 +13°C° 0 mm 1 mps 676 mmHg 92%
04:00 +12°C° 0 mm 1 mps 676 mmHg 93%
05:00 +14°C° 0 mm 1 mps 676 mmHg 85%
06:00 +16°C° 0 mm 1 mps 677 mmHg 77%
07:00 +19°C° 0 mm 1 mps 677 mmHg 69%
08:00 +21°C° 0.2 mm 1 mps 677 mmHg 66%
09:00 +22°C° 0.2 mm 1 mps 677 mmHg 62%
10:00 +23°C° 0.2 mm 2 mps 677 mmHg 59%
11:00 +24°C° 0.4 mm 2 mps 677 mmHg 57%
12:00 +24°C° 0.4 mm 2 mps 677 mmHg 56%
13:00 +24°C° 0.4 mm 2 mps 676 mmHg 55%
14:00 +24°C° 0.1 mm 1 mps 676 mmHg 53%
15:00 +25°C° 0.1 mm 1 mps 676 mmHg 50%
16:00 +25°C° 0.1 mm 1 mps 676 mmHg 48%
17:00 +23°C° 0 mm 1 mps 676 mmHg 54%
18:00 +22°C° 0 mm 1 mps 675 mmHg 60%
19:00 +18°C° 0 mm 0 mps 675 mmHg 66%
20:00 +17°C° 0 mm 0 mps 675 mmHg 69%
21:00 +19°C° 0 mm 1 mps 675 mmHg 71%
22:00 +18°C° 0 mm 1 mps 675 mmHg 74%
23:00 +16°C° 0 mm 1 mps 675 mmHg 78%

Day after tomorrow, 29 July, Thursday

Time Temperature Precipitation Wind Pressure Humidity
00:00 +15°C° 0 mm 1 mps 675 mmHg 82%
01:00 +15°C° 0 mm 1 mps 675 mmHg 86%
02:00 +14°C° 0 mm 1 mps 675 mmHg 88%
03:00 +14°C° 0 mm 1 mps 675 mmHg 89%
04:00 +14°C° 0 mm 1 mps 674 mmHg 91%
05:00 +16°C° 0 mm 1 mps 675 mmHg 84%
06:00 +19°C° 0 mm 1 mps 675 mmHg 76%
07:00 +20°C° 0 mm 1 mps 676 mmHg 69%
08:00 +22°C° 0 mm 1 mps 676 mmHg 61%
09:00 +24°C° 0 mm 1 mps 676 mmHg 54%
10:00 +26°C° 0 mm 2 mps 676 mmHg 47%
11:00 +26°C° 0 mm 1 mps 676 mmHg 45%
12:00 +26°C° 0 mm 1 mps 676 mmHg 43%
13:00 +27°C° 0 mm 1 mps 675 mmHg 42%
14:00 +26°C° 0 mm 1 mps 675 mmHg 46%
15:00 +25°C° 0 mm 1 mps 675 mmHg 51%
16:00 +24°C° 0 mm 1 mps 675 mmHg 56%
17:00 +23°C° 0 mm 1 mps 676 mmHg 58%
18:00 +22°C° 0 mm 1 mps 676 mmHg 61%
19:00 +21°C° 0 mm 1 mps 676 mmHg 63%
20:00 +21°C° 0 mm 1 mps 676 mmHg 65%
21:00 +20°C° 0 mm 1 mps 676 mmHg 66%
22:00 +20°C° 0 mm 1 mps 676 mmHg 68%
23:00 +19°C° 0.2 mm 1 mps 676 mmHg 75%

30 July, Friday

Time Temperature Precipitation Wind Pressure Humidity
00:00 +18°C° 0.2 mm 1 mps 676 mmHg 81%
01:00 +15°C° 0.2 mm 1 mps 676 mmHg 88%
02:00 +15°C° 0.6 mm 1 mps 676 mmHg 91%
03:00 +15°C° 0.6 mm 1 mps 677 mmHg 94%
04:00 +14°C° 0.6 mm 1 mps 677 mmHg 97%
05:00 +15°C° 0.2 mm 1 mps 677 mmHg 96%
06:00 +16°C° 0.2 mm 1 mps 678 mmHg 94%
07:00 +16°C° 0.2 mm 1 mps 678 mmHg 92%
08:00 +17°C° 0.1 mm 2 mps 678 mmHg 87%
09:00 +18°C° 0.1 mm 2 mps 678 mmHg 82%
10:00 +19°C° 0.1 mm 2 mps 679 mmHg 77%
11:00 +20°C° 0.3 mm 2 mps 679 mmHg 73%
12:00 +21°C° 0.3 mm 2 mps 679 mmHg 69%
13:00 +23°C° 0.3 mm 2 mps 679 mmHg 65%
14:00 +23°C° 0.3 mm 2 mps 679 mmHg 64%
15:00 +23°C° 0.3 mm 2 mps 679 mmHg 63%
16:00 +24°C° 0.3 mm 2 mps 679 mmHg 62%
17:00 +21°C° 0.3 mm 2 mps 678 mmHg 69%
18:00 +21°C° 0.3 mm 1 mps 678 mmHg 75%
19:00 +19°C° 0.3 mm 1 mps 678 mmHg 82%
20:00 +18°C° 0 mm 1 mps 678 mmHg 86%
21:00 +15°C° 0 mm 1 mps 679 mmHg 89%
22:00 +14°C° 0 mm 1 mps 679 mmHg 93%
23:00 +13°C° 0 mm 0 mps 679 mmHg 94%

31 July, Saturday

Time Temperature Precipitation Wind Pressure Humidity
00:00 +12°C° 0 mm 0 mps 679 mmHg 94%
01:00 +12°C° 0 mm 0 mps 679 mmHg 94%
02:00 +12°C° 0 mm 0 mps 679 mmHg 95%
03:00 +12°C° 0 mm 0 mps 679 mmHg 95%
04:00 +11°C° 0 mm 0 mps 679 mmHg 95%
05:00 +13°C° 0 mm 0 mps 680 mmHg 91%
06:00 +15°C° 0 mm 0 mps 680 mmHg 86%
07:00 +16°C° 0 mm 0 mps 681 mmHg 82%
08:00 +19°C° 0 mm 0 mps 681 mmHg 72%
09:00 +23°C° 0 mm 1 mps 681 mmHg 62%
10:00 +25°C° 0 mm 1 mps 682 mmHg 53%
11:00 +26°C° 0 mm 1 mps 681 mmHg 48%
12:00 +27°C° 0 mm 1 mps 681 mmHg 43%
13:00 +28°C° 0 mm 1 mps 681 mmHg 38%
14:00 +27°C° 0 mm 1 mps 681 mmHg 43%
15:00 +26°C° 0 mm 1 mps 680 mmHg 48%
16:00 +25°C° 0 mm 1 mps 680 mmHg 53%
17:00 +24°C° 0 mm 1 mps 680 mmHg 58%
18:00 +21°C° 0 mm 0 mps 680 mmHg 63%
19:00 +20°C° 0 mm 0 mps 679 mmHg 68%
20:00 +19°C° 0 mm 0 mps 680 mmHg 68%
21:00 +18°C° 0 mm 0 mps 680 mmHg 69%
22:00 +18°C° 0 mm 0 mps 680 mmHg 69%
23:00 +18°C° 0 mm 0 mps 679 mmHg 69%

1 August, Sunday

Time Temperature Precipitation Wind Pressure Humidity
00:00 +17°C° 0 mm 0 mps 679 mmHg 70%
01:00 +17°C° 0 mm 0 mps 679 mmHg 71%
02:00 +19°C° 0.1 mm 1 mps 679 mmHg 75%
03:00 +18°C° 0.1 mm 1 mps 680 mmHg 79%
04:00 +18°C° 0.1 mm 1 mps 680 mmHg 83%
05:00 +16°C° 0.1 mm 1 mps 680 mmHg 86%
06:00 +16°C° 0.1 mm 1 mps 680 mmHg 89%
07:00 +16°C° 0.1 mm 1 mps 680 mmHg 93%
08:00 +15°C° 0.3 mm 1 mps 680 mmHg 94%
09:00 +15°C° 0.3 mm 1 mps 681 mmHg 95%
10:00 +15°C° 0.3 mm 2 mps 681 mmHg 96%
11:00 +15°C° 1 mm 2 mps 681 mmHg 96%
12:00 +14°C° 1 mm 2 mps 681 mmHg 95%
13:00 +14°C° 1 mm 2 mps 681 mmHg 95%
14:00 +14°C° 0.4 mm 2 mps 681 mmHg 94%
15:00 +14°C° 0.4 mm 2 mps 682 mmHg 94%
16:00 +14°C° 0.4 mm 2 mps 682 mmHg 94%
17:00 +13°C° 0.1 mm 2 mps 682 mmHg 94%
18:00 +13°C° 0.1 mm 2 mps 682 mmHg 94%
19:00 +13°C° 0.1 mm 2 mps 683 mmHg 94%
20:00 +12°C° 0 mm 2 mps 683 mmHg 95%
21:00 +12°C° 0 mm 2 mps 683 mmHg 95%
22:00 +12°C° 0 mm 2 mps 683 mmHg 96%
23:00 +12°C° 0 mm 2 mps 683 mmHg 96%
Show more